SL-16 DEB, 28437

Orbit data source: Space-Track

SL-16 DEB, 28437 is space debris in SSO originally from a launch on Mon, 10 Dec 2001 UTC launched from the Tyuratam Missile And Space Complex (TTMTR). Debris objects in space refer to the collection of defunct objects orbiting the Earth. Examples of debris include non-operational satellites, rocket bodies, and fragments generated from explosions, collisions, or faulty payload assembly.

Loading next visibility...
Identifier
28437, 2001-056L
Orbit
SSO
Last TLE update
18 hours ago
Origin
Manufacturer
Yuzhnoe
Mission
Spacecraft
Bus & Motor
SEP MOTOR COVER, Unknown motor
Mass
~1 kg wet, ~1 kg dry
Launch date (UTC)
2001-12-10 (24 years ago)
Launch vehicle
Unknown
Launch site
Tyuratam Missile And Space Complex (TTMTR)
Object type
Payload
Rocket body
Debris
Shape & HBR
Cone, 1 m
Radar Cross Section
0.635 m², Small (<0.1 m²)

Expand to show TLE details & history

TLE from 18 hours ago
0 SL-16 DEB
1 28437U 01056L   25183.74988458 -.00000058  00000-0 -36311-4 0  9991
2 28437  99.4642 118.9260 0201798 335.8198  80.8952 13.27574206140904
Epoch: 2025-07-02T17:59Z
TLE epoch observation values (Epoch: 2025-07-02T17:59:50.027Z)
Latitude
57.82702°
Longitude
-87.34521°
Altitude
1,144.516 km
Speed
7.296 km/s
True Right ascension
06h 54m 33s
True Declination
57° 40' 47"
Sunlit
Object was in daylight at epoch
Visualization orbit readout
Latitude
35.56275°
Longitude
-78.18392°
Altitude
1,086.908 km
Speed
7.348 km/s
Apparent Right ascension
09h 22m 48s
Apparent Declination
1° 31' 51"
Sunlit
Object is in daylight
Visualization observer readout
Local Sidereal Time
23:44:48
Azimuth
46.927° ENE
Elevation
-37.377°
Doppler factor
1
Orbital elements
Apogee altitude
1,305.227 km
Perigee altitude
1,001.263 km
Semi-major axis
7,531.382 km
Eccentricity
0.02018
Inclination
99.4642°
RAAN
118.926°
Arg. of periapsis
335.8198°
True anomaly
Unknown
Mean anomaly
80.8952°
Eccentric anomaly
Unknown
Mean motion
3.32071 °/min
Orbital period
108.41 mins
BSTAR
-0.000036311
Loading maneuver chart data...
Loading SW <> Apogee altitude chart data...
Loading historical data...
Loading historical data...
Loading historical data...
Loading historical data...
Loading historical data...
Loading historical data...
Loading historical data...

SL-16 DEB Visibility forecast

Observer location: undefined°, undefined°

Span
Click to sort rows by Start time (UTC) header in descending order
Start Az.
Max El. time (UTC)
Max El. Az.
Max El.
End time (UTC)
End Az.
11 mins2025-07-03 19:09:13.627Z144.231° SSE2025-07-03 19:14:13.627Z65.002° ENE40.833°2025-07-03 19:20:13.627Z353.806° N
8 mins2025-07-03 20:58:13.627Z231.151° WSW2025-07-03 21:01:13.627Z264.624° W20.592°2025-07-03 21:06:13.627Z315.134° NNW
13 mins2025-07-04 08:18:13.627Z22.701° NE2025-07-04 08:24:13.627Z119.011° SE42.843°2025-07-04 08:31:13.627Z185.153° SSW
10 mins2025-07-04 10:05:13.627Z346.196° N2025-07-04 10:10:13.627Z298.689° NW23.821°2025-07-04 10:15:13.627Z252.739° W
|